User: anonymous   Login
Location: Caltech
(34.1382°N, 118.1253°W)
Time: 21:57:05
(UTC-08:00)
Language:

Cosmos 1697 Rocket - Orbit

View from above orbital plane
View from above orbital plane
View from above satellite
View from above satellite

Ground track
Ground track

The orbit data is extracted from the following two-line orbital elements,

1 16182U 85097B   15064.32645589 -.00000121  00000-0 -37067-4 0  9998
2 16182 071.0051 324.4986 0010130 266.8763 231.6202 14.16158471518023
Epoch (UTC): 05 March 2015 07:50:05
Eccentricity: 0.0010130
inclination: 71.0051°
perigee height: 831 km
apogee height: 845 km
right ascension of ascending node: 324.4986°
argument of perigee: 266.8763°
revolutions per day: 14.16158471
mean anomaly at epoch: 231.6202°
orbit number at epoch: 51802

The dashed part of the orbit path shows where the satellite is in the earth's shadow,  

DLR